Ardabil, Iran

8:50 PM +0330 on October 20, 2019 (GMT +0330)
Ardabil

Weather History for OITL - August, 2019

Change the Weather History Date:

Monday, August 26, 2019

  Actual Average (WUND) Record (WUND)
Temperature  
Mean Temperature 64 °F -  
Max Temperature 77 °F - - (-1)
Min Temperature 50 °F - - (-1)
Degree Days  
Heating Degree Days 2    
Growing Degree Days 14 (Base 50)    
Moisture  
Dew Point 43 °F    
Average Humidity 47    
Maximum Humidity 82    
Minimum Humidity 23    
Precipitation  
Precipitation 0.00 in - - ()
Sea Level Pressure  
Sea Level Pressure 30.12 in    
Wind  
Wind Speed 10 mph ()    
Max Wind Speed 26 mph    
Max Gust Speed 36 mph    
Visibility 6.2 miles    
Events Fog    
Averages and records for this station are not official NWS values.
T = Trace of Precipitation, MM = Missing Value Source: Averaged Metar Reports

Daily Weather History Graph

Daily Weather History Graph

Search for Another Location

Airport or City:

Astronomy

Aug. 26, 2019 Rise Set
Actual Time 6:40 AM +0430 7:55 PM +0430
Civil Twilight 6:12 AM +0430 8:23 PM +0430
Nautical Twilight 5:39 AM +0430 8:55 PM +0430
Astronomical Twilight 5:05 AM +0430 9:30 PM +0430
Moon 1:47 AM +0430 (8/26) 4:52 PM +0430 (8/26)
Length of Visible Light 14h 10m
Length of Day
13h 15m
Waning Crescent, 23% of the Moon is Illuminated
Aug 26
Waning Crescent
Aug 30
New
Sep 6
First Quarter
Sep 14
Full
Sep 22
Last Quarter

Hourly Weather History & Observations

Time (+0430) Temp. Dew Point Humidity Pressure Visibility Wind Dir Wind Speed Gust Speed Precip Events Conditions
12:20 AM 64.4 °F 35.6 °F 34% 30.09 in 6.2 mi NE 6.9 mph - N/A   Mostly Cloudy
1:20 AM 60.8 °F 35.6 °F 39% 30.09 in 6.2 mi NE 9.2 mph - N/A   Scattered Clouds
2:23 AM 57.2 °F 33.8 °F 41% 30.09 in 6.2 mi ENE 6.9 mph - N/A   Partly Cloudy
3:21 AM 55.4 °F 35.6 °F 47% 30.09 in 6.2 mi ESE 4.6 mph - N/A   Partly Cloudy
4:20 AM 55.4 °F 39.2 °F 54% 30.09 in 6.2 mi Calm Calm - N/A   Partly Cloudy
5:21 AM 50.0 °F 35.6 °F 58% 30.09 in 6.2 mi Calm Calm - N/A   Partly Cloudy
6:21 AM 50.0 °F 35.6 °F 58% 30.12 in 6.2 mi Calm Calm - N/A   Partly Cloudy
6:30 AM 50.0 °F 35.6 °F 58% 30.12 in 6.2 mi Calm Calm - N/A   Partly Cloudy
7:22 AM 50.0 °F 35.6 °F 58% 30.12 in 6.2 mi Calm Calm - N/A   Partly Cloudy
7:30 AM 50.0 °F 35.6 °F 58% 30.12 in 6.2 mi Calm Calm - N/A   Partly Cloudy
8:20 AM 55.4 °F 35.6 °F 47% 30.12 in 6.2 mi Calm Calm - N/A   Partly Cloudy
8:30 AM 55.4 °F 35.6 °F 47% 30.12 in 6.2 mi Calm Calm - N/A   Partly Cloudy
9:21 AM 66.2 °F 39.2 °F 37% 30.15 in 6.2 mi ESE 6.9 mph - N/A   Partly Cloudy
9:30 AM 66.2 °F 39.2 °F 37% 30.15 in 6.2 mi ESE 6.9 mph - N/A   Partly Cloudy
10:20 AM 73.4 °F 33.8 °F 23% 30.12 in 6.2 mi NE 11.5 mph - N/A   Partly Cloudy
11:00 AM 73.4 °F 35.6 °F 25% 30.12 in 6.2 mi East 16.1 mph - N/A   Partly Cloudy
11:21 AM 75.2 °F 37.4 °F 25% 30.12 in 6.2 mi East 16.1 mph - N/A   Partly Cloudy
12:00 PM 75.2 °F 39.2 °F 27% 30.12 in 6.2 mi ENE 16.1 mph - N/A   Partly Cloudy
12:23 PM 75.2 °F 41.0 °F 29% 30.12 in 6.2 mi ENE 16.1 mph - N/A   Partly Cloudy
12:30 PM 75.2 °F 41.0 °F 29% 30.12 in 6.2 mi ENE 16.1 mph - N/A   Partly Cloudy
1:00 PM 75.2 °F 42.8 °F 31% 30.12 in 6.2 mi East 21.9 mph - N/A   Partly Cloudy
1:21 PM 75.2 °F 44.6 °F 34% 30.12 in 6.2 mi East 24.2 mph - N/A   Scattered Clouds
1:30 PM 75.2 °F 44.6 °F 34% 30.12 in 6.2 mi East 24.2 mph - N/A   Scattered Clouds
2:22 PM 77.0 °F 41.0 °F 28% 30.09 in 6.2 mi ENE 16.1 mph 31.1 mph N/A   Scattered Clouds
2:30 PM 77.0 °F 41.0 °F 28% 30.09 in 6.2 mi ENE 16.1 mph 31.1 mph N/A   Scattered Clouds
3:21 PM 75.2 °F 42.8 °F 31% 30.09 in 6.2 mi ENE 16.1 mph 31.1 mph N/A   Partly Cloudy
3:30 PM 75.2 °F 42.8 °F 31% 30.09 in 6.2 mi ENE 16.1 mph 31.1 mph N/A   Partly Cloudy
4:00 PM 73.4 °F 42.8 °F 33% 30.09 in 6.2 mi ENE 16.1 mph 35.7 mph N/A   Partly Cloudy
4:20 PM 73.4 °F 44.6 °F 36% 30.09 in 6.2 mi ENE 18.4 mph 33.4 mph N/A   Partly Cloudy
4:30 PM 73.4 °F 44.6 °F 36% 30.09 in 6.2 mi ENE 18.4 mph 33.4 mph N/A   Partly Cloudy
5:00 PM 71.6 °F 48.2 °F 43% 30.09 in 6.2 mi ENE 18.4 mph 35.7 mph N/A   Partly Cloudy
5:21 PM 69.8 °F 50.0 °F 49% 30.09 in 6.2 mi ENE 19.6 mph 33.4 mph N/A   Partly Cloudy
5:30 PM 69.8 °F 50.0 °F 49% 30.09 in 6.2 mi ENE 19.6 mph 33.4 mph N/A   Partly Cloudy
6:00 PM 68.0 °F 53.6 °F 60% 30.09 in 6.2 mi NE 18.4 mph 33.4 mph N/A   Partly Cloudy
6:23 PM 66.2 °F 55.4 °F 68% 30.12 in 6.2 mi ENE 19.6 mph 33.4 mph N/A   Partly Cloudy
6:30 PM 66.2 °F 55.4 °F 68% 30.12 in 6.2 mi ENE 19.6 mph 33.4 mph N/A   Partly Cloudy
7:00 PM 64.4 °F 55.4 °F 73% 30.12 in 6.2 mi ENE 18.4 mph 35.7 mph N/A   Partly Cloudy
7:20 PM 62.6 °F 51.8 °F 68% 30.12 in 6.2 mi ENE 18.4 mph 35.7 mph N/A   Partly Cloudy
7:30 PM 62.6 °F 51.8 °F 68% 30.12 in 6.2 mi ENE 18.4 mph 35.7 mph N/A   Partly Cloudy
8:00 PM 60.8 °F 53.6 °F 77% 30.12 in 6.2 mi ENE 21.9 mph 35.7 mph N/A Fog Partly Cloudy
8:21 PM 60.8 °F 53.6 °F 77% 30.15 in 6.2 mi ENE 26.5 mph - N/A Fog Partly Cloudy
9:21 PM 60.8 °F 55.4 °F 82% 30.18 in 6.2 mi ENE 24.2 mph - N/A Fog Partly Cloudy
10:22 PM 59.0 °F 51.8 °F 77% 30.18 in 6.2 mi East 21.9 mph - N/A Fog Partly Cloudy
11:24 PM 57.2 °F 50.0 °F 77% 30.21 in 6.2 mi NE 11.5 mph - N/A Fog Partly Cloudy